#timestamp,LO_Frequency,Hit,StdDev 
1507777215.2,286047004.9,N
1507777235.1,286047003.3,N
1507777236.0,286047003.3,N
1507777255.8,286047004.6,N
1507777275.6,286047007.1,N
1507777295.5,286047008.9,Y
1507777315.3,286047005.2,P
1507777335.1,286047004.8,P
1507777355.9,286047005.4,P
1507777375.7,286047006.0,Y
1507777395.5,286047000.5,P
1507777415.4,286047000.5,N
1507777435.2,286046998.5,N
1507777455.0,286046996.7,N
1507777455.9,286046996.7,N
1507777475.8,286046995.1,N
1507777495.6,286046996.0,N
1507777515.4,286046992.0,N
1507777535.3,286046991.9,N
1507777555.1,286046992.4,N
1507777556.0,286046992.4,N
1507777575.8,286046996.3,N
1507777595.7,286046998.0,N
1507777615.5,286046995.7,N
1507777635.3,286046995.7,N
1507777655.1,286046995.4,N
1507777675.9,286046995.4,N
1507777695.7,286046996.1,N
1507777715.5,286046995.5,N
1507777735.4,286046995.8,N
1507777755.2,286046996.4,N
1507777775.0,286046994.5,N
1507777775.9,286046994.5,N
1507777795.8,286046989.8,Y
1507777815.6,286046996.0,P
1507777835.4,286046993.6,P
1507777855.3,286046995.1,P
1507777875.1,286046995.9,Y
1507777895.8,286047000.2,P
1507777915.7,286047000.0,N
1507777935.5,286046998.9,N
1507777955.3,286046996.6,N
1507777975.2,286046999.0,N
1507777995.9,286047000.5,N
1507778015.7,286046998.2,N
1507778035.6,286046999.7,N
1507778055.4,286047002.1,N
1507778075.2,286047002.5,N
1507778095.1,286047003.6,N
1507778096.0,286047003.6,N
1507778115.8,286046999.8,N
1507778135.6,286046998.2,N
1507778155.5,286046996.9,N
1507778175.3,286046998.8,N
1507778195.1,286047000.6,N
1507778215.8,286047000.6,N
1507778235.7,286047000.5,N
1507778255.5,286047000.5,N
1507778275.3,286047000.4,N
1507778295.2,286046999.4,N
1507778315.9,286046998.9,N
1507778335.7,286047001.0,N
1507778355.6,286046998.3,N
1507778375.4,286046998.3,N
1507778395.2,286046999.3,N
1507778415.1,286046999.0,N
1507778416.0,286046999.0,N
1507778435.8,286046996.8,N
1507778455.6,286046996.3,N
1507778475.5,286046997.5,N
1507778495.3,286046996.9,N
1507778515.1,286046999.4,N
1507778535.8,286046998.8,N
1507778555.7,286047000.5,N
1507778575.5,286047002.6,N
1507778595.3,286046999.8,N
1507778615.2,286046999.7,N
1507778635.9,286047002.8,N
1507778655.7,286046998.2,N
1507778675.6,286046998.1,N
1507778695.4,286047002.8,N
1507778715.2,286046999.9,N
1507778735.1,286047001.5,N
1507778736.0,286047001.5,N
1507778755.8,286047003.6,N
1507778775.6,286047001.4,N
1507778795.5,286046998.6,N
1507778815.3,286046998.8,N
1507778835.1,286046998.2,N
1507778855.9,286047000.1,N
1507778875.7,286047000.3,N
1507778895.5,286046999.7,N
1507778915.3,286047001.5,N
1507778935.2,286047006.0,Y
1507778955.0,286047005.8,P
1507778955.9,286047005.8,N
1507778975.8,286047004.0,N
1507778995.6,286047002.0,N
1507779015.4,286046999.8,N
1507779035.2,286047002.5,N
1507779055.1,286047002.8,N
1507779056.0,286047002.8,N
1507779075.8,286047000.4,N
1507779095.6,286046996.7,N
1507779115.5,286046999.3,N
1507779135.3,286047005.3,N
1507779155.1,286047007.0,N
1507779175.9,286047008.7,Y
1507779195.7,286047003.8,P
1507779215.5,286047002.5,P
1507779235.4,286047003.6,P
1507779255.2,286047003.1,Y
1507779275.0,286047000.8,P
1507779275.9,286047000.8,N
1507779295.8,286046999.6,N
1507779315.6,286047000.7,N
1507779335.4,286047000.8,N
1507779355.3,286046998.1,N
1507779375.1,286046998.6,N
1507779376.0,286046998.6,N
1507779395.8,286046999.4,N
1507779415.7,286046996.6,N
1507779435.5,286047000.8,N
1507779455.3,286046996.5,N
1507779475.1,286046997.8,N
1507779495.9,286046995.1,N
1507779515.7,286046996.9,N
1507779535.5,286046997.1,N
1507779555.4,286046997.8,N
1507779575.2,286046998.4,N
1507779595.0,286046999.1,N
1507779595.9,286046999.1,N
1507779615.8,286046996.8,N
1507779635.6,286047000.7,N
1507779655.4,286046999.0,N
1507779675.3,286046996.6,N
1507779695.1,286047000.9,N
1507779696.0,286047000.9,N
1507779715.8,286046996.7,N
1507779735.7,286046996.7,N
1507779755.5,286046998.3,N
1507779775.3,286046998.3,N
1507779795.2,286046998.4,N
1507779815.9,286046999.5,N
1507779835.7,286046999.4,N
1507779855.5,286046998.4,N
1507779875.4,286046997.2,N
1507779895.2,286046997.2,N
1507779915.0,286046995.2,Y
1507779916.0,286046995.2,P
1507779935.8,286046996.8,N
1507779955.6,286046996.4,N
1507779975.5,286046992.3,Y
1507779995.3,286046997.0,P
1507780015.1,286047001.2,P
1507780035.8,286046997.5,N
1507780055.7,286046997.5,N
1507780075.5,286046996.7,N
1507780095.3,286047001.7,N
1507780115.2,286047002.3,N
1507780135.9,286046998.8,N
1507780155.7,286046997.4,N
1507780175.6,286046994.9,N
1507780195.4,286046995.9,N
1507780215.2,286046994.0,N
1507780235.1,286046996.2,N
1507780236.0,286046996.2,N
1507780255.8,286046994.7,N
1507780275.6,286046992.5,Y
1507780295.5,286046996.2,P
1507780315.3,286046995.8,P
1507780335.1,286046995.0,P
1507780355.9,286046995.8,Y
1507780375.7,286047000.2,P
1507780395.5,286047002.3,N
1507780415.4,286047000.4,N
1507780435.2,286047002.7,N
1507780455.0,286047001.9,N
1507780455.9,286047001.9,N
1507780475.8,286047006.0,N
1507780495.6,286047003.5,N
1507780515.4,286047002.7,N
1507780535.2,286047001.4,N
1507780555.1,286047003.1,N
1507780556.0,286047003.1,N
1507780575.8,286047005.7,N
1507780595.6,286047005.6,N
1507780615.5,286047006.7,N
1507780635.3,286047005.8,N
1507780655.1,286047007.3,N
1507780675.9,286047007.8,N
1507780695.7,286047007.2,N
1507780715.5,286047006.0,N
1507780735.4,286046999.7,N
1507780755.2,286046999.1,N
1507780775.0,286046995.7,N
1507780775.9,286046995.7,N
1507780795.8,286046994.5,N
